Location: C�mpuri de-Sus
(45.9500°N, 22.5500°E)
Time: 06:02:50
(UTC+00:00)

Cosmos 2123 Rocket - Pass Details

Date: 24 October 2021
Orbit: 961 x 992 km, 82.9° (Epoch: 04 December)

Event Time Altitude Azimuth Distance (km) Brightness Sun altitude
Rises 16:08:15 0° 354° (N) 3,718 7.0 -7.6°
Reaches altitude 10° 16:10:50 10° 358° (N) 2,764 6.3 -8.1°
Maximum altitude 16:17:06 59° 78° (ENE) 1,133 4.1 -9.1°
Drops below altitude 10° 16:23:17 10° 157° (SSE) 2,730 6.2 -10.2°
Sets 16:25:49 0° 161° (SSE) 3,669 6.9 -10.6°
